CZ-6A DEB, 61382

Orbit data source: Space-Track

CZ-6A DEB, 61382 is space debris in LEO originally from a launch on Tue, 06 Aug 2024 UTC launched from the Taiyaun Space Center, China (TSC). Debris objects in space refer to the collection of defunct objects orbiting the Earth. Examples of debris include non-operational satellites, rocket bodies, and fragments generated from explosions, collisions, or faulty payload assembly.

Loading next visibility...
Identifier
61382, 2024-140WX
Orbit
LEO
Country
Flag of CNCN / PRC
Related business
Manufacturer
SAST
Mission
Spacecraft
Bus & Motor
Unknown
Mass
Unknown
Launch date (UTC)
2024-08-06 (1 year ago)
Launch vehicle
Unknown
Launch site
Taiyaun Space Center, China (TSC)
Object type
Payload
Rocket body
Debris
Shape & HBR
Unknown shape, 0.1 m
Radar Cross Section
Small (<0.1 m²)

Expand to show TLE details & history
Last TLE update: 7 hours ago

TLE from 7 hours ago
0 CZ-6A DEB
1 61382U 24140WX  25354.81203359  .00001953  00000-0  48175-3 0  9997
2 61382  88.9471 288.8979 0083552 188.4963 171.4835 14.49659627 68222
Epoch: 2025-12-20T19:29Z
TLE epoch observation values (Epoch: 2025-12-20T19:29:19.702Z)
Latitude
-0.00004°
Longitude
-93.06766°
Altitude
788.588 km
Speed
7.428 km/s
True Right ascension
19h 15m 35s
True Declination
0° 00' 00"
Sunlit
Object was in daylight at epoch
Visualization orbit readout
Latitude
Unknown
Longitude
Unknown
Altitude
Unknown
Speed
Unknown
Apparent Right ascension
Unknown
Apparent Declination
Unknown
Sunlit
N/A
Visualization observer readout
Local Sidereal Time
00:59:42
Azimuth
Unknown
Elevation
Unknown
Doppler factor
Unknown
Orbital elements
Apogee altitude
783.006 km
Perigee altitude
664.332 km
Semi-major axis
7,101.806 km
Eccentricity
0.00836
Inclination
88.9471°
RAAN
288.8979°
Arg. of periapsis
188.4963°
True anomaly
171.62384°
Mean anomaly
171.4835°
Eccentric anomaly
171.55381°
Mean motion
3.62652 °/min
Orbital period
99.27 mins
BSTAR
0.00048175
Loading maneuver chart data...
Computing Atmospheric mass density...
Loading historical data...
Loading historical data...
Loading historical data...
Loading historical data...
Loading historical data...
Loading historical data...
Loading historical data...

Documentation

Showing up to 5 results
|